User: anonymous   Login
Location: Anjeux
(47.8815°N, 6.2076°E)
Time: 03:44:30
(UTC+00:00)
Language:

DELFI C3 - Orbit

View from above orbital plane
View from above orbital plane
View from above satellite
View from above satellite

Ground track
Ground track

The orbit data is extracted from the following two-line orbital elements,

1 32789U 08021G   21332.88853459  .00003752  00000-0  23477-3 0  9994
2 32789  97.3619   1.8737 0009901 300.5761  59.4491 15.09951733741639
Epoch (UTC): 28 November 2021 21:19:29
Eccentricity: 0.0009901
inclination: 97.3619°
perigee height: 529 km
apogee height: 543 km
right ascension of ascending node: 1.8737°
argument of perigee: 300.5761°
revolutions per day: 15.09951733
mean anomaly at epoch: 59.4491°
orbit number at epoch: 74163

The dashed part of the orbit path shows where the satellite is in the earth's shadow,  

DLR